Погода в Скоттсдейле

США     33°37′58″N   111°51′22″W
темп.,
°C
ветер,
м/с
пор.,
м/с
влажн.,
%
обл.,
%
осадки,
мм/ч
давл.,
гПа
погр.,
м
16 октября, сб
сб1623:00+16ссв56210 0.0 101892
02:00+14ссв67230 0.0 101885
05:00+13ссв56250 0.0 101869
08:00+16ссв56250 0.0 1019149
11:00+25всв45150 0.0 1017850
14:00+29вюв34140 0.0 10141318
17:00+28вюв23190 0.0 101346
20:00+23всв33240 0.0 101518
17 октября, вс
вс1723:00+21св44290 0.0 101542
02:00+19ссв44330 0.0 101541
05:00+18ссв333599 0.0 101526
08:00+19св3334100 0.0 101693
11:00+25ююв3423100 0.0 1015888
14:00+28ю6921100 0.0 10112112
17:00+27юз5815100 0.0 1010374
20:00+22зсз23210 0.0 101220
18 октября, пн
пн1823:00+20ююв22250 0.0 101211
02:00+17ю22320 0.0 101211
05:00+16вюв11370 0.0 101211
08:00+19вюв22310 0.0 1013106
11:00+23ю79250 0.0 10121518
14:00+25ююз79195 0.0 10092008
17:00+24юз78205 0.0 1008912
20:00+21юз46280 0.0 101074
19 октября, вт
вт1923:00+18ююз23380 0.0 101224
02:00+16юв22433 0.0 101211
05:00+15всв11420 0.0 101311
08:00+17св22380 0.0 1015103
11:00+21ююв23270 0.0 10151134
14:00+24ююз33240 0.0 10131550
17:00+23ююз11240 0.0 10131375
20:00+20св11330 0.0 101411
20 октября, ср
ср2023:00+18ссв33320 0.0 101514
02:00+17ссв433556 0.0 101627
05:00+16ссв4335100 0.0 101633
08:00+17ссв343245 0.0 1018108
11:00+24св1221100 0.0 1018665
14:00+26ю2218100 0.0 10151460
17:00+25зюз1123100 0.0 101516
20:00+22ссз1126100 0.0 101611